This is the latest recevied weather packets stored in our database for station/object N4QB-13. If no packets are shown the sender has not sent any weather packets the latest 10 day(s).
| Time | Temp. | Humidity | Pressure | Rain* | Wind** | Luminosity | Snow |
|---|---|---|---|---|---|---|---|
| 1777299191 | 21.11° C | 89% | 1016.5 hPa | 0 mm | - | 52 W/m² | - |
| 1777298888 | 21.11° C | 90% | 1016.4 hPa | 0 mm | - | 50 W/m² | - |
| 1777298585 | 21.11° C | 90% | 1016.5 hPa | 0 mm | - | 54 W/m² | - |
| 1777298281 | 21.11° C | 90% | 1016.3 hPa | 0 mm | - | 68 W/m² | - |
| 1777297976 | 20.56° C | 90% | 1016.4 hPa | 0 mm | - | 55 W/m² | - |
| 1777297673 | 20.56° C | 91% | 1016.3 hPa | 0 mm | - | 48 W/m² | - |
| 1777297371 | 20.56° C | 91% | 1016 hPa | 0 mm | - | 43 W/m² | - |
| 1777297067 | 20.56° C | 91% | 1016.2 hPa | 0 mm | - | 46 W/m² | - |
| 1777296763 | 20.56° C | 91% | 1015.9 hPa | 0 mm | - | 50 W/m² | - |
| 1777296459 | 20.56° C | 92% | 1016 hPa | 0 mm | - | 52 W/m² | - |
| 1777296156 | 20.56° C | 92% | 1015.8 hPa | 0 mm | - | 41 W/m² | - |
| 1777295852 | 20.56° C | 92% | 1015.9 hPa | 0 mm | - | 39 W/m² | - |
| 1777295550 | 20.56° C | 92% | 1015.8 hPa | 0 mm | - | 48 W/m² | - |
| 1777295247 | 20.56° C | 93% | 1015.7 hPa | 0 mm | - | 35 W/m² | - |
| 1777294945 | 20.56° C | 93% | 1015.7 hPa | 0 mm | - | 51 W/m² | - |
| 1777294640 | 20.56° C | 93% | 1015.5 hPa | 0 mm | - | 44 W/m² | - |
| 1777294336 | 20.56° C | 93% | 1015.7 hPa | 0 mm | - | 32 W/m² | - |
| 1777294033 | 20.56° C | 94% | 1015.5 hPa | 0 mm | - | 40 W/m² | - |
| 1777293730 | 20.56° C | 94% | 1015.5 hPa | 0 mm | - | 38 W/m² | - |
| 1777293424 | 20° C | 94% | 1015.8 hPa | 0 mm | - | 35 W/m² | - |
| 1777293121 | 20° C | 94% | 1015.7 hPa | 0 mm | - | 24 W/m² | - |
| 1777292819 | 20° C | 94% | 1015.6 hPa | 0 mm | - | 25 W/m² | - |
| 1777292516 | 20° C | 95% | 1015.5 hPa | 0 mm | - | 26 W/m² | - |
| 1777292213 | 20° C | 95% | 1015.5 hPa | 0 mm | - | 20 W/m² | - |
| 1777291908 | 20° C | 95% | 1015.4 hPa | 0 mm | - | 17 W/m² | - |
* Rain latest hour (hover to see other rain measurements)
** Current wind speed in m/s (hover to see current wind gust speed)